Regional Weather Roundup
Issued by NWS

Home | Current Version | Previous Version | Graphics & Text | Print | Product List | Glossary On
Versions: 1 2 3 4 5 6 7 8 9 10 11 12 13 14 15 16 17 18 19 20 21 22 23 24 25 26 27 28 29 30 31 32 33 34 35 36 37 38 39 40 41 42 43 44 45 46 47 48 49 50
000
ASUS44 KMEG 021200
RWRTN
TENNESSEE HOURLY STATE WEATHER ROUNDUP
NATIONAL WEATHER SERVICE MEMPHIS TN
600 AM CST FRI DEC 02 2016

TNZ002-004-019-021-049-052-054-088>092-021300-
WEST TENNESSEE

CITY           SKY/WX    TMP DP  RH WIND       PRES   REMARKS
MEMPHIS INTL   CLEAR     37  31  78 CALM      30.21R
NWS MEMPHIS      N/A     32 N/A N/A MISG        N/A
JACKSON        CLEAR     29  27  92 CALM      30.22R
DYERSBURG      CLEAR    N/A N/A N/A CALM      30.22R
UNION CITY     CLEAR     27  25  93 CALM      30.20R
PARIS          CLEAR     27  25  93 CALM      30.21R
LEXINGTON      CLEAR     27  27 100 CALM      30.21R
$$

TNZ008-025-027-028-033-062-065-066-021300-
NORTH MIDDLE TENNESSEE

CITY           SKY/WX    TMP DP  RH WIND       PRES   REMARKS
NASHVILLE      CLEAR     30  26  85 CALM      30.22R
CLARKSVILLE    CLEAR     28  25  88 CALM      30.22R
SMYRNA         CLEAR     28  26  92 CALM      30.23R
CROSSVILLE     CLEAR     27  25  92 CALM      30.18R
$$

TNZ061-075-076-078-094-096-097-021300-
SOUTH MIDDLE TENNESSEE

CITY           SKY/WX    TMP DP  RH WIND       PRES   REMARKS
TULLAHOMA      CLEAR     25  21  86 CALM      30.21R
WINCHESTER     CLEAR     27  25  93 CALM      30.22R
MCMINNVILLE    CLEAR     27  27 100 MISG      30.20S
SHELBYVILLE    CLEAR     30  28  93 E3        30.22S
$$

TNZ017-018-042-046-047-021300-
NORTHEAST TENNESSEE

CITY           SKY/WX    TMP DP  RH WIND       PRES   REMARKS
TRI CITIES     PTCLDY    27  24  89 CALM      30.17R
$$

TNZ012-013-036-069-073-074-021300-
CENTRAL EAST TENNESSEE

CITY           SKY/WX    TMP DP  RH WIND       PRES   REMARKS
KNOXVILLE      CLEAR     32  29  88 S3        30.20R
OAK RIDGE      CLEAR     30  26  85 CALM      30.22R
GATLINBURG     CLEAR     25  25 100 CALM      30.20R
$$

TNZ083-085-099-021300-
SOUTHEAST TENNESSEE

CITY           SKY/WX    TMP DP  RH WIND       PRES   REMARKS
CHATTANOOGA    CLEAR     33  30  88 CALM      30.22R
$$

SKY/WX REPORTED AS FAIR MEANS FEW OR NO CLOUDS BELOW
12 THOUSAND FEET.





USA.gov is the U.S. government's official web portal to all federal, state and local government web resources and services.